Preview of NWS' New Version of Forecast
This preview is not operational and should not be used for support decisions.

Regional Weather Roundup (RWR)

Issued by National Weather Service (NWS)

                            
000
ASUS44 KMEG 191410
RWRTN 
TENNESSEE HOURLY STATE WEATHER ROUNDUP
NATIONAL WEATHER SERVICE MEMPHIS TN
900 AM CDT FRI APR 19 2019

TNZ002-004-019-021-049-052-054-088>092-191500-
WEST TENNESSEE
  
CITY           SKY/WX    TMP DP  RH WIND       PRES   REMARKS
MEMPHIS INTL   CLOUDY    48  44  86 N10G25    29.73S                  
NWS MEMPHIS      N/A     46 N/A N/A MISG        N/A                   
JACKSON        LGT RAIN  46  45  96 NW13      29.67S FOG              
DYERSBURG      LGT RAIN  46  43  89 N20G29    29.71S                  
SOMERVILLE     CLOUDY    46  43  87 NW15G28   29.68S                  
COVINGTON      PTSUNNY   46  43  87 N21       29.71S                  
UNION CITY     CLOUDY    46  45  93 N15G23    29.68R                  
BOLIVAR        PTSUNNY   46  45  93 NW13G21   29.66S FOG              
PARIS          PTSUNNY   46  45  93 N13G20    29.63S                  
HUNTINGDON     PTSUNNY   46  46 100 VRB6G15   29.63S FOG              
LEXINGTON      PTSUNNY   48  46  93 NW10G24   29.60S FOG              
SELMER         FOG       46  45  93 N9G24     29.62S VSB 1            
SAVANNAH       MOSUNNY   48  46  93 NW9G23    29.60F FOG              
$$

TNZ008-025-027-028-033-062-065-066-191500-
NORTH MIDDLE TENNESSEE
  
CITY           SKY/WX    TMP DP  RH WIND       PRES   REMARKS
NASHVILLE      DRIZZLE   51  47  86 NW13      29.53S FOG              
DICKSON        MOSUNNY   46  45  93 N20G25    29.55F FOG              
PORTLAND       PTSUNNY   50  50 100 N13       29.51F FOG              
CLARKSVILLE    LGT RAIN  47  43  86 NW16G25   29.58S FOG              
LEBANON        CLOUDY    52  50  93 NW12      29.49S FOG              
SMYRNA         LGT RAIN  51  50  96 NW14G22   29.53S FOG              
MURFREESBORO   CLOUDY    52  50  93 NW13      29.49S FOG              
COOKEVILLE     CLOUDY    63  61  94 CALM      29.46F                  
LIVINGSTON     FOG       61  59  94 VRB3      29.47F VSB 3/4          
GALLATIN       CLOUDY    52  50  93 NW6G16    29.53S                  
CROSSVILLE     LGT RAIN  59  57  93 E3        29.48F FOG              
ROCKWOOD       CLOUDY    59  59 100 SE3       29.48F FOG              
$$

TNZ061-075-076-078-094-096-097-191500-
SOUTH MIDDLE TENNESSEE
  
CITY           SKY/WX    TMP DP  RH WIND       PRES   REMARKS
LAWRENCEBURG   CLOUDY    48  46  93 NW9G17    29.53F                  
LEWISBURG      PTSUNNY   50  48  93 NW9       29.52S FOG              
FAYETTEVILLE   CLOUDY    52  52 100 NW8G16    29.49R                  
TULLAHOMA      CLOUDY    54  54 100 NW15G22   29.47S FOG              
WINCHESTER     CLOUDY    59  57  94 W8        29.47F                  
MCMINNVILLE    CLOUDY    61  59  94 W8G15     29.46F FOG              
COLUMBIA       PTSUNNY   50  50 100 NW8G15    29.52F FOG              
SHELBYVILLE    MOSUNNY   52  50  93 NW15G22   29.50S FOG              
$$

TNZ017-018-042-046-047-191500-
NORTHEAST TENNESSEE
  
CITY           SKY/WX    TMP DP  RH WIND       PRES   REMARKS
TRI CITIES     LGT RAIN  60  59  96 CALM      29.62F                  
ELIZABETHTON   FAIR      61  61 100 SE5       29.63F                  
GREENEVILLE    CLOUDY    59  57  94 CALM      29.61S FOG              
$$

TNZ012-013-036-069-073-074-191500-
CENTRAL EAST TENNESSEE
  
CITY           SKY/WX    TMP DP  RH WIND       PRES   REMARKS
KNOXVILLE      LGT RAIN  61  59  93 CALM      29.49R                  
OAK RIDGE      FAIR      62  59  90 E3        29.50                   
DOWNTOWN KNOXV MOSUNNY   61  61 100 CALM      29.50R                  
GATLINBURG     CLOUDY    61  57  88 SE8G14    29.51F FOG              
MORRISTOWN     CLOUDY    59  59 100 S13G21    29.53F FOG              
JACKSBORO      CLOUDY    61  59  94 NE8       29.52S FOG              
$$

TNZ083-085-099-191500-
SOUTHEAST TENNESSEE
  
CITY           SKY/WX    TMP DP  RH WIND       PRES   REMARKS
CHATTANOOGA    CLOUDY    64  61  90 SE3       29.46S FOG              
DAYTON         PTSUNNY   63  61  94 NE3       29.45F FOG              
$$

SKY/WX REPORTED AS FAIR MEANS FEW OR NO CLOUDS BELOW
12 THOUSAND FEET.